Location: Unspecified
(0.0000°N, 0.0000°E)
Time: 03:36:41
(UTC+00:00)

S-56A Canister/Altair - Pass Details

Date: 17 December 2018
Orbit: 633 x 2500 km, 38.9° (Epoch: 18 March)

Event Time Altitude Azimuth Distance (km) Brightness Sun altitude
Rises 10:32:03 0° 311° (NW) 6,163 11.8 59.0°
Reaches altitude 10° 10:36:07 10° 311° (NW) 5,152 11.5 59.6°
Maximum altitude 10:51:11 87° 223° (SW) 2,204 11.2 61.8°
Drops below altitude 10° 11:02:33 10° 133° (SE) 4,008 11.8 63.3°
Sets 11:05:19 0° 133° (SE) 4,777 11.9 63.6°
